Location: Tel Aviv
(32.0670°N, 34.7670°E)
Time: 02:52:05
(UTC+03:00)

Tiros 1 - Pass Details

Date: 28 January 2022
Orbit: 629 x 663 km, 48.4° (Epoch: 26 May)

Event Time Altitude Azimuth Distance (km) Brightness Sun altitude
Rises 21:19:35 0° 258° (WSW) 2,983 - -52.6°
Reaches altitude 10° 21:22:11 10° 269° (W) 2,074 - -53.1°
Maximum altitude 21:26:23 30° 331° (NNW) 1,197 - -54.0°
Drops below altitude 10° 21:30:36 10° 32° (NNE) 2,079 - -54.9°
Sets 21:33:12 0° 43° (NE) 2,991 - -55.4°
